Westerly, RI

2:47 PM EST on November 13, 2019 (GMT -0500)
Westerly State

Weather History for KWST - October, 2019

Change the Weather History Date:

Sunday, October 20, 2019

  Actual Average (WUND) Record (WUND)
Temperature  
Mean Temperature 50 °F -  
Max Temperature 63 °F - - (-1)
Min Temperature 39 °F - - (-1)
Degree Days  
Heating Degree Days 14    
Moisture  
Dew Point 46 °F    
Average Humidity 82    
Maximum Humidity 96    
Minimum Humidity 65    
Precipitation  
Precipitation 0.17 in - - ()
Sea Level Pressure  
Sea Level Pressure 30.06 in    
Wind  
Wind Speed 2 mph ()    
Max Wind Speed 8 mph    
Max Gust Speed -    
Visibility 9.7 miles    
Events Rain    
Averages and records for this station are not official NWS values.
T = Trace of Precipitation, MM = Missing Value Source: Averaged Metar Reports

Daily Weather History Graph

Daily Weather History Graph

Search for Another Location

Airport or City:

Astronomy

Oct. 20, 2019 Rise Set
Actual Time 7:04 AM EDT 5:59 PM EDT
Civil Twilight 6:36 AM EDT 6:27 PM EDT
Nautical Twilight 6:04 AM EDT 6:59 PM EDT
Astronomical Twilight 5:32 AM EDT 7:31 PM EDT
Moon 11:02 PM EDT (10/20) 1:32 PM EDT (10/20)
Length of Visible Light 11h 50m
Length of Day
10h 54m
Waning Gibbous, 59% of the Moon is Illuminated
Oct 20
Waning Gibbous
Oct 21
Last Quarter
Oct 27
New
Nov 4
First Quarter
Nov 12
Full

Hourly Weather History & Observations

Time (EDT) Temp. Windchill Dew Point Humidity Pressure Visibility Wind Dir Wind Speed Gust Speed Precip Events Conditions
12:53 AM 41.0 °F - 39.9 °F 96% 30.06 in 9.0 mi Calm Calm - N/A   Clear
1:53 AM 39.9 °F - 37.9 °F 93% 30.06 in 10.0 mi Calm Calm - N/A   Clear
2:53 AM 39.0 °F - 37.0 °F 93% 30.06 in 10.0 mi Calm Calm - N/A   Clear
3:53 AM 39.0 °F - 37.0 °F 93% 30.07 in 10.0 mi Calm Calm - N/A   Clear
4:53 AM 39.9 °F 37.8 °F 37.0 °F 89% 30.06 in 10.0 mi North 3.5 mph - N/A   Clear
5:53 AM 39.0 °F - 37.0 °F 93% 30.07 in 10.0 mi Calm Calm - N/A   Clear
6:53 AM 39.0 °F 36.8 °F 36.0 °F 89% 30.06 in 10.0 mi North 3.5 mph - N/A   Clear
7:53 AM 42.1 °F 40.2 °F 37.9 °F 85% 30.06 in 10.0 mi North 3.5 mph - N/A   Clear
8:53 AM 45.0 °F 43.5 °F 41.0 °F 86% 30.09 in 10.0 mi NNE 3.5 mph - N/A   Clear
9:53 AM 50.0 °F - 44.1 °F 80% 30.11 in 10.0 mi North 3.5 mph - N/A   Clear
10:53 AM 57.0 °F - 48.0 °F 72% 30.11 in 10.0 mi NE 3.5 mph - N/A   Clear
11:53 AM 61.0 °F - 50.0 °F 67% 30.09 in 10.0 mi East 8.1 mph - N/A   Clear
12:53 PM 61.0 °F - 50.0 °F 67% 30.08 in 10.0 mi ESE 6.9 mph - N/A   Clear
1:53 PM 62.1 °F - 51.1 °F 67% 30.07 in 10.0 mi ESE 5.8 mph - N/A   Clear
2:53 PM 62.1 °F - 50.0 °F 65% 30.07 in 10.0 mi SE 5.8 mph - N/A   Clear
3:53 PM 61.0 °F - 50.0 °F 67% 30.06 in 10.0 mi Calm Calm - N/A   Partly Cloudy
4:53 PM 60.1 °F - 50.0 °F 69% 30.04 in 10.0 mi East 4.6 mph - N/A   Partly Cloudy
5:53 PM 59.0 °F - 50.0 °F 72% 30.04 in 10.0 mi ESE 3.5 mph - N/A   Overcast
6:53 PM 57.9 °F - 52.0 °F 81% 30.04 in 10.0 mi Calm Calm - 0.00 in Rain Light Rain
7:53 PM 55.9 °F - 53.1 °F 90% 30.04 in 10.0 mi North 4.6 mph - 0.01 in Rain Light Rain
8:53 PM 55.0 °F - 53.1 °F 93% 30.04 in 9.0 mi North 4.6 mph - 0.05 in Rain Light Rain
9:53 PM 54.0 °F - 48.9 °F 83% 30.03 in 8.0 mi ENE 4.6 mph - 0.06 in Rain Light Rain
10:53 PM 54.0 °F - 51.1 °F 90% 30.03 in 10.0 mi Calm Calm - 0.02 in Rain Light Rain
11:53 PM 55.0 °F - 53.1 °F 93% 30.02 in 7.0 mi NE 4.6 mph - 0.03 in Rain Light Rain